Hourly Data Report for October 01, 2017

All times are specified in Local Standard Time (LST). Add 1 hour to adjust for Daylight Saving Time where and when it is observed.

PANGNIRTUNG
NUNAVUT

66°08'36.300" N
65°42'40.500" W
22.60 m
2403049
71826
WXP

Download Data

Hourly Data (October 2017)
Hourly Data Report for October 1, 2017
Temp Definition
°C
Dew Point Temp Definition
°C
Rel Hum Definition
%
Wind Dir Definition
10's deg

Wind Spd Definition
km/h
Visibility Definition
km
Stn Press Definition
kPa
Hmdx Definition


Wind Chill Definition


Weather Definition


TIME
00:00 -2.0 -9.6 56 10 3   99.51   -3 LegendNANA
01:00 -0.4 -8.9 53 14 15   99.57   -5 LegendNANA
02:00 -1.7 -8.7 58 18 2   99.67   -2 LegendNANA
03:00 -2.2 -9.0 60 27 2   99.74   -3 LegendNANA
04:00 -1.6 -8.0 62 24 17   99.86   -7 LegendNANA
05:00 -2.5 -8.1 65 18 2   100.00   -3 LegendNANA
06:00 -1.4 -8.5 58 24 4   100.09   -3 LegendNANA
07:00 -1.2 -7.5 62 25 6   100.18   -3 LegendNANA
08:00 0.7 -7.7 54 13 7   100.28     LegendNANA
09:00 1.8 -6.5 54   0   100.36     LegendNANA
10:00 1.0 -6.5 57 12 7   100.41     LegendNANA
11:00 2.1 -6.7 52 9 3   100.44     LegendNANA
12:00 0.9 -5.6 62 25 14   100.51     LegendNANA
13:00 2.2 -6.0 55 25 11   100.55     LegendNANA
14:00 2.0 -7.1 51 25 13   100.61     LegendNANA
15:00 1.7 -5.1 60 25 11   100.67     LegendNANA
16:00 0.4 -4.9 68 25 7   100.71     LegendNANA
17:00 0.2 -4.0 73 23 11   100.73     LegendNANA
18:00 1.2 -3.7 70 26 11   100.78     LegendNANA
19:00 0.7 -3.1 76 27 16   100.83     LegendNANA
20:00 0.8 -2.5 78 23 12   100.86     LegendNANA
21:00 -0.1 -2.5 84 25 22   100.91   -6 LegendNANA
22:00 -1.1 -3.0 87 25 21   100.93   -7 LegendNANA
23:00 -0.9 -3.4 83 24 19   100.95   -6 LegendNANA

Notes on Data Quality.

Legend

  • E = Estimated
  • M = Missing
  • NA = Not Available
  • ‡ = Partner data that is not subject to review by the National Climate Archives
Date modified: